Miscellaneous Local Product
Issued by NWS North Platte, NE

Home | Current Version | Previous Version | Graphics & Text | Print | Product List | Glossary On
Versions: 1 2 3 4 5 6 7 8 9 10 11 12 13 14 15 16 17 18 19 20 21 22 23 24 25 26 27 28 29 30 31 32 33 34 35 36 37 38 39 40 41 42 43 44 45 46 47 48 49 50
000
AXUS43 KLBF 300210
MISLBF


WESTERN AND NORTH CENTRAL NEBRASKA HOURLY WEATHER ROUNDUP
NATIONAL WEATHER SERVICE NORTH PLATTE NE
900 PM CDT FRI MAY 29 2015

***STATIONS NOT REPORTING VARIABLES SUCH AS SKY/WEATHER OR
PRESSURE ARE PROVIDED BY THE NEBRASKA DEPARTMENT OF
ROADS...RAWS...AND APRS NETWORKS...AND ARE NOT UNDER
NATIONAL WEATHER SERVICE QUALITY CONTROL***

...OBSERVATIONS IN AND NEAR THE EASTERN PANHANDLE OF NEBRASKA...

CITY           SKY/WX    TMP DP  RH WIND       PRES   REMARKS
PINE RIDGE     CLOUDY    50  40  68 N5        30.28R
CHADRON        CLOUDY    49  44  83 CALM      30.29S
ALLIANCE       CLOUDY    46  44  93 N8        30.28R
SIDNEY         CLOUDY    49  45  86 N15       30.29R
WHITECLAY        N/A     47  40  77 SW6         N/A
BIG SPRINGS      N/A     52  47  83 N5          N/A
$$

...OBSERVATIONS IN NORTH CENTRAL NEBRASKA...

CITY           SKY/WX    TMP DP  RH WIND       PRES   REMARKS
VALENTINE      MOCLDY    47  43  86 N10       30.24S
THEDFORD       CLOUDY    48  46  91 N17G23    30.21S
AINSWORTH      CLOUDY    49  47  95 N18       30.22S
O`NEILL        CLOUDY    50  49  95 N17       30.17S
ORD            CLOUDY    50  46  86 N26G32    30.14R
BROKEN BOW     CLOUDY    51  47  86 N22       30.16R
BROWNLEE         N/A     50  47  90 W18         N/A
VALENTINE NWR    N/A     46  46  99 N14G23      N/A
SPRINGVIEW       N/A     49  45  86 NW7G15      N/A
HALSEY           N/A     47  47  99 NW9G22      N/A
BREWSTER         N/A     49  46  88 N17         N/A
ROSE             N/A     46  46  99 S13         N/A
NEWPORT          N/A     49  47  93 W12         N/A
SARGENT          N/A     49  46  89 NW3G16      N/A
COMSTOCK         N/A     53  49  87 E22         N/A
EWING            N/A     49  47  95 N12G20      N/A
$$

...OBSERVATIONS IN SOUTHWEST NEBRASKA AND FAR NORTHEAST COLORADO...

CITY           SKY/WX    TMP DP  RH WIND       PRES   REMARKS
WRAY           LGT RAIN  54  50  86 N15G23    30.24R
HOLYOKE        CLOUDY    54  46  76 N13G21    30.26R
IMPERIAL       CLOUDY    53  45  74 N18       30.23R
OGALLALA       CLOUDY    51  46  84 N12       30.24R
NORTH PLATTE   CLOUDY    51  46  83 N14G26    30.20R
MCCOOK         CLOUDY    55  48  77 N20G26    30.17R
LEXINGTON      CLOUDY    53  49  86 N17G26    30.16R
PAXTON           N/A     51  47  87 N12         N/A
GOTHENBURG       N/A     51  45  79 NW9         N/A
CALLAWAY         N/A     49  47  92 N16         N/A
$$

...NORTH PLATTE AREA...

CITY           SKY/WX    TMP DP  RH WIND       PRES   REMARKS
AIRPORT        CLOUDY    51  46  83 N14G26    30.20R
DOWNTOWN         N/A     50  46  84 N7G15       N/A
$$

...SOME WEATHER OBSERVATIONS FROM AROUND THE REGION...

CITY           SKY/WX    TMP DP  RH WIND       PRES   REMARKS
DENVER         MOCLDY    53  46  77 N10       30.31R
LARAMIE        CLOUDY    47  38  71 NE5       30.34R
CHEYENNE       CLOUDY    47  44  90 N7        30.32S
SCOTTSBLUFF    CLOUDY    50  46  86 N9        30.31R
RAPID CITY     PTCLDY    52  41  66 N8        30.27S
PIERRE         MOCLDY    50  39  66 N9        30.23S
WINNER         MOCLDY    51  39  63 N12       30.23R
SIOUX FALLS    CLOUDY    50  44  80 N20       30.12R
OMAHA          CLOUDY    63  59  87 N26G33    29.97R
GRAND ISLAND   CLOUDY    55  47  74 N23G30    30.12R
KANSAS CITY    CLOUDY    65  64  97 S5        29.95S
WICHITA        CLOUDY    73  64  73 SW3       29.96R
HAYS           CLOUDY    59  52  77 N15       30.05S
LIBERAL        CLOUDY    68  55  64 N7        30.08R
GOODLAND       PTCLDY    54  48  80 N20G30    30.20R
$$



USA.gov is the U.S. government's official web portal to all federal, state and local government web resources and services.